Regional Weather Roundup
Issued by NWS

Home | Current Version | Previous Version | Graphics & Text | Print | Product List | Glossary On
Versions: 1 2 3 4 5 6 7 8 9 10 11 12 13 14 15 16 17 18 19 20 21 22 23 24 25 26 27
000
ASUS45 KCYS 210210
RWRWY

WYOMING REGIONAL WEATHER ROUNDUP
NATIONAL WEATHER SERVICE CHEYENNE WY
700 PM MST FRI JAN 20 2017

NOTE:  "FAIR" INDICATES FEW OR NO CLOUDS BELOW 12,000 FEET
WITH NO SIGNIFICANT WEATHER AND/OR OBSTRUCTIONS TO VISIBILITY.

WYZ001-210300-
YELLOWSTONE NATIONAL PARK

CITY           SKY/WX    TMP DP  RH WIND       PRES   REMARKS
LK YELLOWSTONE   N/A     13  11  92 CALM      29.39F
W YELLOWSTONE  NOT AVBL

$$
WYZ002>013-054>058-071-098>099-210300-
NORTHERN WYOMING

CITY           SKY/WX    TMP DP  RH WIND       PRES   REMARKS
JACKSON        PTCLDY    18  16  93 VRB5      29.37F WCI  11
CODY           FAIR      18  16  92 CALM      29.40S
GREYBULL       FAIR      16  14  92 CALM      29.41R FOG
WORLAND        FAIR      28  24  85 SE13      29.39S WCI  17
SHERIDAN       CLOUDY    33  28  81 S5        29.40S WCI  29
BUFFALO        CLOUDY    33  29  85 CALM      29.40F
GILLETTE       CLOUDY    33  32  96 W7        29.40S WCI  27
HULETT         LGT SNOW  32  32 100 MISG      29.40S
NEWCASTLE      LGT SNOW  32  32 100 NW6       29.40S WCI  26

$$
WYZ014>020-022>026-101>103-210300-
CENTRAL WYOMING

CITY           SKY/WX    TMP DP  RH WIND       PRES   REMARKS
BIG PINEY      FAIR       2   0  91 CALM      29.43F
PINEDALE       MOCLDY     0  -4  85 CALM      29.43S
DUBOIS         NOT AVBL
LANDER         FAIR      22  17  81 CALM      29.38S
RIVERTON       FAIR     N/A N/A N/A NW8       29.40S HAZE
CASPER         FAIR      24  18  77 W9        29.41F WCI  14
DOUGLAS        FAIR      30  30 100 CALM      29.42S

$$
WYZ021-027>030-104>119-210300-
SOUTHERN WYOMING

CITY           SKY/WX    TMP DP  RH WIND       PRES   REMARKS
EVANSTON       MOCLDY    21  14  74 E14       29.35F WCI   8
ROCK SPRINGS   FAIR      18  15  88 SE6       29.42F WCI  10
RAWLINS        FAIR      21  14  74 SW10      29.45S WCI  10
LARAMIE        FAIR      21  11  65 W14       29.42R WCI   8
CHEYENNE       FAIR      30  17  58 NW7       29.41S WCI  23
TORRINGTON     CLOUDY    36  32  85 W8        29.41R WCI  30

$$




USA.gov is the U.S. government's official web portal to all federal, state and local government web resources and services.